Regional Weather Roundup
Issued by NWS State College, PA

Home | Current Version | Previous Version | Text Only | Print | Product List | Glossary On
Versions: 1 2 3 4 5 6 7 8 9 10 11 12 13 14 15 16 17 18 19 20 21 22 23 24 25 26 27 28 29 30 31 32 33 34 35 36 37 38 39 40 41 42 43 44 45 46 47 48 49 50
000
ASUS41 KCTP 250810
RWRCTP

REGIONAL WEATHER ROUNDUP
NATIONAL WEATHER SERVICE STATE COLLEGE PA
400 AM EDT MON JUL 25 2016

Note: "fair" indicates few or no clouds below 12,000 feet with no
significant weather and/or obstructions to visibility.

* = STATION THAT DOES NOT REPORT PRECIPITATION /E.G. RAIN...SNOW...ETC/
    THUNDER OR FOG.

PAZ002>004-007>009-013>016-020>023-029>032-250900-
WESTERN PENNSYLVANIA

CITY           SKY/WX    TMP DP  RH WIND       PRES   REMARKS
ERIE           PTCLDY    79  70  74 S12       29.91F
MEADVILLE      CLOUDY    70  68  93 VRB5      29.98F
FRANKLIN*      CLOUDY    70  66  88 S7        30.01F
NEW CASTLE     FAIR      72  71  97 CALM      29.98F
BEAVER COUNTY  NOT AVBL
BUTLER*        MOCLDY    70  70 100 CALM      30.02F
PITTSBURGH INT MOCLDY    73  69  87 CALM      29.99F
PITTSBURGH     MOCLDY    71  69  93 S6        30.00S FOG
INDIANA*       CLOUDY    70  70 100 CALM      30.04S
LATROBE        PTCLDY    68  68 100 CALM      30.01F
WASHINGTON CO* CLEAR     70  68  94 CALM      30.01S
$$

PAZ004>006-010>012-017>019-024>028-033>037-041-042-045-046-049>053-250900-
CENTRAL PENNSYLVANIA

CITY           SKY/WX    TMP DP  RH WIND       PRES   REMARKS
BRADFORD       CLOUDY    67  66  97 S3        30.02F FOG
DUBOIS         FOG       68  67  96 CALM      30.02F VSB 1/4
CLEARFIELD     FOG       70  68  93 S5        30.02F VSB 1/4
JOHNSTOWN      MOCLDY    71  65  81 S7        30.06F
ALTOONA        CLOUDY    69  67  93 CALM      30.03S FOG
STATE COLLEGE  CLOUDY    70  69  98 CALM      30.00F FOG
WILLIAMSPORT   CLOUDY    74  69  85 W5        29.95R
SELINSGROVE    PTCLDY    71  71 100 CALM      29.97S
FT INDIANTOWN  CLOUDY    73  71  95 NE1       29.96S
CAPITAL CITY   CLOUDY    75  72  90 W3        29.95F
HARRISBURG     CLOUDY    76  75  97 CALM      29.94F
YORK           PTCLDY    73  72  96 CALM      29.96F FOG
$$

PAZ038>040-043-044-047-048-054-055-060>062-067>071-250900-
EASTERN PENNSYLVANIA

CITY           SKY/WX    TMP DP  RH WIND       PRES   REMARKS
SCRANTON       CLOUDY    76  68  76 SW5       29.96S
MOUNT POCONO   CLOUDY    72  64  76 W7        30.01F
ALLENTOWN      PTCLDY    77  68  73 NW6       29.95S
QUAKERTOWN*    CLOUDY    77  68  73 CALM      29.97S
READING        LGT RAIN  77  70  79 SW6       29.95S
LANCASTER      LGT RAIN  73  72  96 NW3       29.97R
COATESVILLE    LGT RAIN  73  73 100 NW7G13    29.99R
POTTSTOWN      TSTM      73  72  96 W8G18     30.01R VSB 1/2
BLUE BELL      CLOUDY    77  70  78 S3        29.94F
DOYLESTOWN     CLOUDY    77  67  71 S5        29.94F
WILLOW GROVE   NOT AVBL
NORTH PHILA    CLOUDY    81  68  64 S5        29.95F
PHILADELPHIA   CLOUDY    80  71  74 S8        29.94F
$$



USA.gov is the U.S. government's official web portal to all federal, state and local government web resources and services.